Flag for Israel Weather past 2 weeks in Petah Tikva, Israel

Now
86 °F

Scattered clouds.


Feels Like: 88 °F
Forecast: 76 / 88 °F
Wind: 13 mph from Northwest

Location: Ben Gurion International Airport

Current Time: Sep 2, 2014 at 5:57:06 PM

Latest Report: Sep 2, 2014 at 5:20 PM


Visibility: N/A

Pressure: 29.77 "Hg

Humidity: 52%

Dew point: 66 °F

Location of Petah TikvaLocation

Historic Weather in Petah Tikva — Graph

°F

Petah Tikva temperature yesterday

Maximum temperature yesterday: 88 °F (at 11:50 AM)
Minimum temperature yesterday: 77 °F (at 6:20 AM)
Average temperature yesterday: 82 °F

Past Weeks' High & Low Weather Summary

 TemperatureHumidityPressure
High93 °F (Aug 24, 12:20 PM)89% (Aug 23, 4:50 AM)29.95 "Hg (Aug 23, 4:50 AM)
Low73 °F (Aug 26, 5:20 AM)46% (Aug 20, 11:20 AM)29.68 "Hg (Aug 18, 4:20 PM)
Average83 °F68%29.79 "Hg
* Reported Aug 18 4:20 PM — Sep 2 4:20 PM, Petah Tikva, Weather by CustomWeather, © 2014

Note: Actual official high and low records may vary slightly from our data, if they occured in-between our weather recording intervals... More about our weather records

Advertising

Petah Tikva weather history for previous 24 hours

 ConditionsComfort  
Time TempWeatherWind HumidityBarometerVisibility
4:20 PM
Sep 2
86 °FScattered clouds.13 mph55%29.77 "HgN/A
3:50 PM86 °FScattered clouds.14 mph52%29.77 "HgN/A
3:20 PM88 °FScattered clouds.13 mph52%29.77 "HgN/A
2:50 PM88 °FScattered clouds.14 mph49%29.77 "HgN/A
2:20 PM88 °FScattered clouds.13 mph49%29.77 "HgN/A
1:50 PM86 °FScattered clouds.12 mph52%29.77 "HgN/A
1:20 PM86 °FScattered clouds.12 mph52%29.77 "HgN/A
12:50 PM86 °FScattered clouds.13 mph52%29.77 "HgN/A
12:20 PM88 °FScattered clouds.12 mph46%29.77 "HgN/A
11:50 AM86 °FScattered clouds.10 mph49%29.80 "HgN/A
11:20 AM86 °FScattered clouds.9 mph49%29.80 "HgN/A
10:50 AM84 °FScattered clouds.10 mph55%29.80 "HgN/A
10:20 AM84 °FScattered clouds.8 mph51%29.80 "HgN/A
9:50 AM84 °FScattered clouds.7 mph55%29.80 "HgN/A
9:20 AM82 °FScattered clouds.5 mph62%29.80 "HgN/A
8:50 AM82 °FPassing clouds.6 mph62%29.80 "HgN/A
8:20 AM81 °FPassing clouds.6 mph66%29.80 "HgN/A
7:50 AM79 °FPassing clouds.6 mph70%29.80 "HgN/A
7:20 AM75 °FPassing clouds.5 mph74%29.80 "HgN/A
6:50 AM75 °FPassing clouds.3 mph74%29.80 "HgN/A
6:20 AM75 °FPassing clouds.3 mph74%29.77 "HgN/A
5:50 AM75 °FPassing clouds.6 mph74%29.77 "HgN/A
5:20 AM75 °FPassing clouds.3 mph74%29.77 "HgN/A
4:50 AM77 °FPassing clouds.3 mph74%29.77 "HgN/A
4:20 AM77 °FPassing clouds.6 mph74%29.77 "HgN/A
3:50 AM75 °FPassing clouds.5 mph74%29.77 "HgN/A
3:20 AM77 °FPassing clouds.5 mph74%29.77 "HgN/A
2:50 AM77 °FPassing clouds.5 mph69%29.77 "HgN/A
2:20 AM77 °FPassing clouds.3 mph69%29.77 "HgN/A
1:50 AM77 °FPassing clouds.2 mph69%29.77 "HgN/A
1:20 AM77 °FPassing clouds.3 mph69%29.77 "HgN/A
12:50 AM79 °FPassing clouds.2 mph65%29.80 "HgN/A
12:20 AM79 °FPassing clouds.3 mph65%29.80 "HgN/A
11:20 PM
Sep 1
79 °FPassing clouds.5 mph70%29.80 "HgN/A
10:50 PM81 °FPassing clouds.6 mph66%29.80 "HgN/A
10:20 PM81 °FPassing clouds.6 mph66%29.80 "HgN/A
9:50 PM81 °FPassing clouds.5 mph66%29.80 "HgN/A
9:20 PM81 °FPassing clouds.8 mph66%29.80 "HgN/A
8:50 PM81 °FPassing clouds.8 mph66%29.80 "HgN/A
8:20 PM81 °FPassing clouds.5 mph70%29.77 "HgN/A
7:20 PM82 °FPartly sunny.9 mph66%29.77 "HgN/A
6:50 PM82 °FScattered clouds.10 mph62%29.77 "HgN/A
6:20 PM82 °FPartly sunny.12 mph66%29.77 "HgN/A
5:50 PM84 °FPartly sunny.13 mph62%29.77 "HgN/A
5:20 PM84 °FScattered clouds.14 mph62%29.77 "HgN/A
Weather by CustomWeather, © 2014

See weather overviewHow to use our weather pages